IBADAL6 Weather Reports


time (UTC)temp
C
wind
direction
speed
KPH
gust
KPH
rain 1hr
cm
rain 24hr
cm
rain mn
cm
humidity
%
barometer
mb
20260502163041 18 117 3.2 9.7 0.00 0.00 0.00 80 1020.8
20260502161539 18 108 4.8 9.7 0.00 0.00 0.00 80 1020.9
20260502151524 19 121 4.8 11.3 0.00 0.00 0.00 78 1021.5
20260502123004 19 106 6.4 12.9 0.00 0.00 0.00 79 1023.3
20260502121503 18 123 8.0 14.5 0.00 0.00 0.00 80 1023.2
20260502120120 18 141 4.8 16.1 0.00 0.00 0.00 81 1023.3
20260502114605 18 124 6.4 14.5 0.00 0.00 0.00 82 1023.4
20260502113118 18 139 8.0 14.5 0.00 0.00 0.00 82 1023.5
20260502111556 18 113 9.7 22.5 0.00 0.00 0.00 82 1023.5
20260502110055 18 108 9.7 19.3 0.00 0.00 0.00 81 1023.5
20260502104553 18 75 6.4 14.5 0.00 0.00 0.00 81 1023.7
20260502103052 18 134 4.8 12.9 0.00 0.00 0.00 81 1023.8
20260502101550 18 146 6.4 12.9 0.00 0.00 0.00 81 1023.9
20260502070048 -17 0.0 0.0 0.00 0.00 0.00 1024.1
20260502064547 -17 0.0 0.0 0.00 0.00 0.00 1024.1
20260502063038 -17 0.0 0.0 0.00 0.00 0.00 1023.9
20260502061536 -17 0.0 0.0 0.00 0.00 0.00 1023.9
20260502060033 -17 0.0 0.0 0.00 0.00 0.00 1023.8
20260502054534 -17 128 3.2 8.0 0.00 0.00 0.00 1023.8
20260502053026 17 71 1.6 11.3 0.00 0.00 0.00 83 1023.6
20260502051529 17 81 6.4 14.5 0.00 0.00 0.00 83 1023.6
20260502050039 17 75 6.4 14.5 0.00 0.00 0.00 83 1023.6
20260502044522 17 138 4.8 14.5 0.00 0.00 0.00 83 1023.5
20260502043024 17 95 4.8 16.1 0.00 0.00 0.00 83 1023.5
20260502041523 17 72 6.4 16.1 0.00 0.00 0.00 83 1023.5
20260502040019 17 117 4.8 12.9 0.00 0.00 0.00 83 1023.4
20260502034518 17 86 4.8 14.5 0.00 0.00 0.00 83 1023.6
20260502033016 17 56 4.8 16.1 0.00 0.00 0.00 84 1023.5
20260502031514 17 92 6.4 14.5 0.00 0.00 0.00 83 1023.6
20260502030013 17 122 4.8 12.9 0.00 0.00 0.00 82 1023.7
20260502024519 17 122 6.4 14.5 0.00 0.00 0.00 82 1023.8
20260502023016 17 110 4.8 11.3 0.00 0.00 0.00 81 1023.8
20260502021510 17 92 4.8 11.3 0.00 0.00 0.00 82 1023.8
20260502020111 17 75 3.2 9.7 0.00 0.00 0.00 82 1023.9
20260502014510 17 84 1.6 9.7 0.00 0.00 0.00 82 1024.0
20260502013011 17 92 4.8 14.5 0.00 0.00 0.00 82 1023.9
20260502011505 17 124 3.2 11.3 0.00 0.00 0.00 82 1023.9
20260502010013 17 113 4.8 11.3 0.00 0.00 0.00 81 1024.1
20260502004503 17 79 4.8 12.9 0.00 0.00 0.00 79 1024.3
20260502003200 17 127 0.0 9.7 0.00 0.00 0.00 79 1024.5
20260502001601 17 105 0.0 6.4 0.00 0.00 0.00 79 1024.5
20260502000101 17 110 1.6 9.7 0.00 0.00 0.00 80 1024.7
20260501234559 17 85 1.6 9.7 0.00 0.00 0.00 82 1024.9
20260501233053 17 142 3.2 9.7 0.00 0.00 0.00 84 1024.9
20260501231556 17 119 1.6 6.4 0.00 0.00 0.00 85 1024.9
20260501230101 17 89 3.2 11.3 0.00 0.00 0.00 85 1024.9
20260501224551 17 121 3.2 8.0 0.00 0.00 0.00 86 1024.9
20260501223050 17 97 1.6 9.7 0.00 0.00 0.00 86 1024.9
20260501221555 17 84 3.2 14.5 0.00 0.00 0.00 86 1024.8
20260501220046 17 66 4.8 11.3 0.00 0.00 0.00 85 1024.8
20260501214550 17 108 6.4 16.1 0.00 0.00 0.00 85 1024.9
20260501213045 17 67 3.2 12.9 0.00 0.00 0.00 86 1025.0
20260501211544 17 79 4.8 17.7 0.00 0.00 0.00 85 1024.8
20260501210043 17 128 3.2 16.1 0.00 0.00 0.00 85 1024.9
20260501204543 17 121 4.8 14.5 0.00 0.00 0.00 85 1024.9
20260501203051 17 78 3.2 9.7 0.00 0.00 0.00 86 1025.0
20260501201549 17 122 0.0 6.4 0.00 0.00 0.00 86 1024.9
20260501200042 17 131 4.8 17.7 0.00 0.00 0.00 86 1024.8
20260501193039 17 113 8.0 16.1 0.00 0.00 0.00 86 1024.5
20260501191550 17 93 6.4 12.9 0.00 0.00 0.00 85 1024.3
20260501190045 17 100 6.4 16.1 0.00 0.00 0.00 85 1024.3
20260501184533 17 115 9.7 17.7 0.00 0.00 0.00 85 1024.2
20260501183031 17 127 14.5 19.3 0.00 0.00 0.00 84 1024.0
20260501181532 17 78 8.0 17.7 0.00 0.00 0.00 84 1023.8
20260501180036 17 112 11.3 22.5 0.00 0.00 0.00 83 1023.7
20260501174527 17 70 9.7 19.3 0.00 0.00 0.00 83 1023.6
20260501173035 17 117 6.4 22.5 0.00 0.00 0.00 82 1023.4